DW3092 Weather Reports


time (UTC)temp
C
wind
direction
speed
KPH
gust
KPH
rain 1hr
cm
rain 24hr
cm
rain mn
cm
humidity
%
barometer
mb
20260507010450 14 125 6.4 9.7 0.00 0.25 0.25 94 1006.3
20260507005947 14 131 9.7 14.5 0.00 0.25 0.25 94 1006.4
20260507005445 14 142 6.4 11.3 0.05 0.25 0.25 94 1006.2
20260507004941 14 141 6.4 6.4 0.05 0.25 0.25 94 1006.2
20260507004437 14 146 9.7 11.3 0.00 0.25 0.25 94 1006.1
20260507003936 14 139 9.7 9.7 0.00 0.25 0.25 94 1006.3
20260507003430 14 145 6.4 9.7 0.00 0.25 0.25 94 1006.3
20260507002926 14 140 6.4 8.0 0.00 0.25 0.25 94 1006.2
20260507002422 14 113 3.2 6.4 0.00 0.25 0.25 94 1006.3
20260507001919 14 147 9.7 9.7 0.00 0.25 0.25 94 1006.2
20260507001416 14 127 6.4 6.4 0.00 0.25 0.25 94 1006.2
20260507000914 14 121 4.8 6.4 0.00 0.25 0.25 94 1005.9
20260507000408 14 115 6.4 8.0 0.00 0.25 0.25 94 1006.1
20260506235905 14 112 6.4 8.0 0.00 0.25 0.25 94 1005.9
20260506235402 14 116 4.8 9.7 0.00 0.25 0.25 94 1005.9
20260506234858 14 117 6.4 8.0 0.00 0.25 0.25 94 1005.8
20260506234355 14 136 6.4 9.7 0.05 0.25 0.25 94 1005.7
20260506233853 14 106 3.2 8.0 0.05 0.25 0.25 94 1005.9
20260506233349 14 117 6.4 8.0 0.00 0.23 0.23 94 1005.9
20260506232846 14 112 6.4 9.7 0.05 0.23 0.23 94 1005.7
20260506232342 14 131 4.8 9.7 0.13 0.23 0.23 94 1005.6
20260506231838 15 122 6.4 9.7 0.05 0.23 0.23 94 1005.8
20260506231336 15 110 6.4 8.0 0.00 0.23 0.23 94 1005.9
20260506230833 15 118 4.8 8.0 0.00 0.23 0.23 94 1005.6
20260506230330 15 124 4.8 8.0 0.13 0.23 0.23 94 1005.9
20260506225826 15 114 3.2 6.4 0.13 0.20 0.20 93 1005.7
20260506225324 15 146 6.4 8.0 0.13 0.20 0.20 93 1005.7
20260506224820 15 139 9.7 9.7 0.05 0.18 0.18 93 1005.6
20260506224318 15 113 3.2 8.0 0.00 0.18 0.18 93 1005.9
20260506223814 15 114 3.2 8.0 0.00 0.18 0.18 93 1005.9
20260506223309 15 102 3.2 9.7 0.00 0.18 0.18 93 1006.1
20260506222807 15 123 6.4 6.4 0.05 0.18 0.18 93 1006.1
20260506222305 15 152 8.0 11.3 0.05 0.18 0.18 92 1006.0
20260506221800 15 109 6.4 8.0 0.00 0.18 0.18 92 1006.0
20260506221258 15 116 4.8 6.4 0.00 0.18 0.18 92 1006.1
20260506220755 15 116 3.2 8.0 0.00 0.18 0.18 92 1006.3
20260506220255 15 136 4.8 6.4 0.00 0.18 0.18 92 1006.3
20260506215752 15 129 6.4 6.4 0.00 0.18 0.18 91 1006.2
20260506215248 15 116 6.4 9.7 0.00 0.18 0.18 91 1006.3
20260506214744 15 95 6.4 9.7 0.00 0.18 0.18 91 1006.1
20260506214241 15 140 9.7 16.1 0.05 0.18 0.18 91 1006.1
20260506213740 15 135 6.4 11.3 0.13 0.18 0.18 91 1006.6
20260506213237 15 146 8.0 11.3 0.05 0.15 0.15 90 1006.6
20260506212734 15 111 4.8 8.0 0.00 0.15 0.15 90 1006.5
20260506212230 15 108 4.8 6.4 0.00 0.15 0.15 90 1006.4
20260506211725 15 109 6.4 8.0 0.00 0.15 0.15 90 1006.5
20260506211222 15 75 3.2 11.3 0.00 0.15 0.15 90 1006.6
20260506210719 15 169 3.2 8.0 0.00 0.15 0.15 90 1006.6
20260506210216 15 154 19.3 19.3 0.00 0.15 0.15 90 1006.6
20260506205713 15 139 6.4 6.4 0.00 0.15 0.15 90 1006.7
20260506205208 15 118 4.8 8.0 0.00 0.15 0.15 90 1006.7
20260506204705 15 115 8.0 8.0 0.00 0.15 0.15 90 1006.7
20260506204202 15 146 6.4 9.7 0.00 0.15 0.15 89 1006.6
20260506203700 15 99 4.8 9.7 0.00 0.15 0.15 89 1006.8
20260506203157 15 144 8.0 12.9 0.05 0.15 0.15 89 1007.0
20260506202655 15 130 6.4 8.0 0.05 0.15 0.15 89 1007.1
20260506202150 15 112 6.4 11.3 0.00 0.15 0.15 89 1006.9
20260506201648 15 116 9.7 12.9 0.00 0.15 0.15 90 1006.9
20260506201144 15 141 6.4 8.0 0.00 0.15 0.15 90 1006.8
20260506200641 15 100 3.2 8.0 0.00 0.15 0.15 90 1007.0
20260506200138 15 134 8.0 9.7 0.00 0.15 0.15 90 1006.9
20260506195635 15 127 6.4 9.7 0.00 0.15 0.15 90 1006.8
20260506195131 15 125 6.4 6.4 0.00 0.15 0.15 90 1006.9
20260506194629 15 134 6.4 9.7 0.00 0.15 0.15 89 1007.0
20260506194124 15 146 6.4 9.7 0.05 0.15 0.15 89 1006.9
20260506193623 15 149 9.7 9.7 0.13 0.15 0.15 89 1007.1
20260506193120 15 115 6.4 9.7 0.23 0.13 0.13 88 1007.1
20260506192616 16 114 8.0 16.1 0.23 0.13 0.13 86 1007.0
20260506192112 16 114 6.4 12.9 0.18 0.10 0.10 85 1007.2
20260506191609 16 114 4.8 9.7 0.13 0.08 0.08 85 1007.1
20260506191105 16 103 4.8 8.0 0.13 0.05 0.05 83 1007.0
20260506190603 16 139 8.0 12.9 0.13 0.05 0.05 82 1007.0
20260506190059 17 54 1.6 8.0 0.05 0.05 0.05 81 1007.0
20260506185556 17 127 4.8 6.4 0.05 0.03 0.03 79 1007.2
20260506185053 17 109 3.2 6.4 0.13 0.03 0.03 78 1007.2
20260506184550 18 149 6.4 9.7 0.13 0.03 0.03 74 1007.2
20260506184047 18 116 4.8 8.0 0.05 0.00 0.00 72 1007.1
20260506183543 18 129 4.8 8.0 0.00 0.00 0.00 70 1007.5
20260506183040 19 137 4.8 6.4 0.00 0.00 0.00 68 1007.5
20260506182538 19 130 4.8 9.7 0.00 0.00 0.00 68 1007.6
20260506182035 19 140 6.4 11.3 0.00 0.00 0.00 65 1007.5
20260506181533 20 141 9.7 17.7 0.00 0.00 0.00 64 1007.3
20260506181029 20 149 3.2 9.7 0.00 0.00 0.00 64 1007.5
20260506180525 20 134 8.0 17.7 0.00 0.00 0.00 61 1007.5
20260506180022 20 118 4.8 9.7 0.00 0.00 0.00 60 1007.9
20260506175519 21 169 6.4 9.7 0.00 0.00 0.00 57 1007.4
20260506175015 21 123 4.8 12.9 0.00 0.00 0.00 56 1007.5
20260506174514 21 152 9.7 17.7 0.00 0.00 0.00 55 1007.2
20260506174010 21 116 6.4 9.7 0.00 0.00 0.00 54 1007.4
20260506173508 21 74 1.6 17.7 0.00 0.00 0.00 54 1007.7
20260506173004 21 125 8.0 16.1 0.00 0.00 0.00 54 1007.4
20260506172502 22 139 14.5 17.7 0.00 0.00 0.00 53 1007.9
20260506171957 22 135 4.8 12.9 0.00 0.00 0.00 53 1007.3
20260506171455 21 122 6.4 14.5 0.00 0.00 0.00 54 1007.6
20260506170953 21 136 8.0 12.9 0.00 0.00 0.00 54 1007.7
20260506170449 22 144 4.8 9.7 0.00 0.00 0.00 53 1007.5
20260506165948 22 118 3.2 12.9 0.00 0.00 0.00 53 1007.5
20260506165446 22 113 8.0 14.5 0.00 0.00 0.00 52 1007.5
20260506164942 22 157 11.3 14.5 0.00 0.00 0.00 53 1007.7
20260506164439 21 144 6.4 17.7 0.00 0.00 0.00 53 1007.7
20260506163936 21 121 9.7 16.1 0.00 0.00 0.00 53 1008.0
20260506163431 21 139 8.0 12.9 0.00 0.00 0.00 53 1008.1
20260506162926 21 154 6.4 17.7 0.00 0.00 0.00 54 1008.0
20260506162424 21 131 8.0 12.9 0.00 0.00 0.00 55 1008.0
20260506161922 21 102 4.8 9.7 0.00 0.00 0.00 56 1008.2
20260506161420 21 134 4.8 8.0 0.00 0.00 0.00 56 1008.1
20260506160917 21 273 1.6 9.7 0.00 0.00 0.00 56 1008.2
20260506160414 21 84 3.2 9.7 0.00 0.00 0.00 56 1008.4
20260506155912 21 141 6.4 14.5 0.00 0.00 0.00 56 1008.4
20260506155409 21 35 3.2 6.4 0.00 0.00 0.00 57 1008.6
20260506153530 21 119 9.7 9.7 0.00 0.00 0.00 57 1008.7
20260506153028 21 232 4.8 6.4 0.00 0.00 0.00 57 1008.9
20260506152525 21 117 4.8 14.5 0.00 0.00 0.00 56 1008.8
20260506152023 21 122 3.2 8.0 0.00 0.00 0.00 58 1008.9
20260506151520 21 157 8.0 8.0 0.00 0.00 0.00 58 1009.2
20260506151018 21 122 9.7 12.9 0.00 0.00 0.00 58 1009.1
20260506150513 21 145 4.8 12.9 0.00 0.00 0.00 58 1009.1
20260506150011 21 140 8.0 16.1 0.00 0.00 0.00 57 1009.0
20260506145507 21 122 9.7 12.9 0.00 0.00 0.00 57 1009.1
20260506145005 21 117 4.8 8.0 0.00 0.00 0.00 58 1009.1
20260506144501 21 135 3.2 9.7 0.00 0.00 0.00 60 1009.1
20260506143959 20 148 9.7 11.3 0.00 0.00 0.00 60 1009.1
20260506143456 20 137 11.3 14.5 0.00 0.00 0.00 60 1009.2
20260506142955 20 118 6.4 9.7 0.00 0.00 0.00 61 1009.1
20260506142452 20 40 6.4 12.9 0.00 0.00 0.00 62 1009.2
20260506141949 20 105 11.3 11.3 0.00 0.00 0.00 63 1009.0
20260506141447 20 113 9.7 12.9 0.00 0.00 0.00 64 1009.2
20260506140946 20 123 6.4 16.1 0.00 0.00 0.00 64 1009.0
20260506140442 20 139 8.0 12.9 0.00 0.00 0.00 65 1009.1
20260506135939 19 153 9.7 9.7 0.00 0.00 0.00 65 1009.1
20260506135437 19 144 11.3 11.3 0.00 0.00 0.00 66 1009.3
20260506134932 19 154 8.0 9.7 0.00 0.00 0.00 66 1009.5
20260506134429 18 146 14.5 16.1 0.00 0.00 0.00 67 1009.2
20260506133926 18 156 11.3 16.1 0.00 0.00 0.00 65 1009.2
20260506133423 18 145 9.7 9.7 0.00 0.00 0.00 67 1009.3
20260506132919 19 131 11.3 14.5 0.00 0.00 0.00 66 1009.5
20260506132416 19 119 8.0 12.9 0.00 0.00 0.00 66 1009.6
20260506131914 18 141 9.7 9.7 0.00 0.00 0.00 67 1009.9
20260506131410 18 85 4.8 12.9 0.00 0.00 0.00 68 1009.9
20260506130908 18 115 3.2 12.9 0.00 0.00 0.00 70 1009.8
20260506130403 18 126 4.8 6.4 0.00 0.00 0.00 71 1009.6
20260506125902 18 155 3.2 9.7 0.00 0.00 0.00 69 1009.9
20260506125400 18 144 11.3 14.5 0.00 0.00 0.00 69 1009.5
20260506124858 18 147 12.9 12.9 0.00 0.00 0.00 70 1009.6
20260506124354 17 131 8.0 9.7 0.00 0.00 0.00 70 1009.5
20260506123853 18 111 3.2 8.0 0.00 0.00 0.00 70 1009.7
20260506123351 17 115 8.0 8.0 0.00 0.00 0.00 72 1009.6
20260506122848 17 112 4.8 8.0 0.00 0.00 0.00 72 1009.8
20260506122344 17 98 4.8 9.7 0.00 0.00 0.00 72 1009.8
20260506121843 17 79 3.2 9.7 0.00 0.00 0.00 72 1009.8
20260506121339 17 115 6.4 12.9 0.00 0.00 0.00 73 1009.7
20260506120836 17 136 4.8 9.7 0.00 0.00 0.00 74 1009.7
20260506120334 17 128 4.8 8.0 0.00 0.00 0.00 74 1009.6
20260506115831 17 132 3.2 11.3 0.00 0.00 0.00 74 1009.9
20260506115329 16 96 3.2 8.0 0.00 0.00 0.00 74 1009.8
20260506114827 16 117 4.8 8.0 0.00 0.00 0.00 76 1009.9
20260506114325 16 110 3.2 9.7 0.00 0.00 0.00 76 1009.9
20260506113823 16 152 9.7 9.7 0.00 0.00 0.00 76 1009.9
20260506113320 16 109 6.4 8.0 0.00 0.00 0.00 77 1010.0
20260506112817 16 114 3.2 6.4 0.00 0.00 0.00 77 1010.1
20260506112314 16 146 6.4 14.5 0.00 0.00 0.00 77 1010.2
20260506111811 16 115 6.4 9.7 0.00 0.00 0.00 77 1010.2
20260506111309 15 128 6.4 12.9 0.00 0.00 0.00 77 1010.1
20260506110807 15 95 3.2 6.4 0.00 0.00 0.00 78 1010.1
20260506110303 15 122 6.4 9.7 0.00 0.00 0.00 78 1010.0
20260506105800 15 151 8.0 9.7 0.00 0.00 0.00 78 1009.8
20260506105257 15 103 3.2 6.4 0.00 0.00 0.00 78 1009.9
20260506104755 15 117 3.2 8.0 0.00 0.00 0.00 79 1010.4
20260506104252 15 115 3.2 8.0 0.00 0.00 0.00 79 1010.2
20260506103749 15 148 9.7 9.7 0.00 0.00 0.00 79 1009.9
20260506103247 15 123 6.4 9.7 0.00 0.00 0.00 79 1009.7
20260506102744 15 94 3.2 8.0 0.00 0.00 0.00 80 1009.9
20260506102242 15 117 3.2 8.0 0.00 0.00 0.00 79 1010.0
20260506101739 15 152 8.0 9.7 0.00 0.00 0.00 79 1010.2
20260506101235 15 130 4.8 8.0 0.00 0.00 0.00 79 1010.0
20260506100733 15 120 3.2 8.0 0.00 0.00 0.00 79 1010.0
20260506100231 15 106 3.2 9.7 0.00 0.00 0.00 79 1010.0
20260506095729 15 110 8.0 8.0 0.00 0.00 0.00 79 1009.8
20260506095226 15 117 4.8 8.0 0.00 0.00 0.00 79 1009.9
20260506094723 15 127 4.8 6.4 0.00 0.00 0.00 79 1010.0
20260506094221 15 116 4.8 9.7 0.00 0.00 0.00 79 1009.9
20260506093720 15 138 8.0 9.7 0.00 0.00 0.00 78 1009.6
20260506093216 15 107 6.4 8.0 0.00 0.00 0.00 78 1009.5
20260506092714 15 105 4.8 6.4 0.00 0.00 0.00 78 1009.9
20260506092211 15 140 6.4 8.0 0.00 0.00 0.00 78 1009.8
20260506091709 15 123 4.8 6.4 0.00 0.00 0.00 78 1009.8
20260506091206 15 127 4.8 8.0 0.00 0.00 0.00 78 1009.8
20260506090704 15 144 6.4 8.0 0.00 0.00 0.00 77 1010.0
20260506090200 15 120 6.4 12.9 0.00 0.00 0.00 77 1009.8
20260506085657 15 125 6.4 9.7 0.00 0.00 0.00 77 1009.7
20260506085153 15 119 4.8 8.0 0.00 0.00 0.00 77 1009.8
20260506084650 15 126 6.4 8.0 0.00 0.00 0.00 77 1010.0
20260506084147 15 137 4.8 11.3 0.00 0.00 0.00 76 1009.8
20260506083644 15 123 4.8 11.3 0.00 0.00 0.00 76 1010.0
20260506083141 15 144 9.7 9.7 0.00 0.00 0.00 76 1009.9
20260506082638 15 157 6.4 9.7 0.00 0.00 0.00 76 1009.9
20260506082133 15 114 6.4 9.7 0.00 0.00 0.00 75 1010.0
20260506081632 15 136 4.8 8.0 0.00 0.00 0.00 75 1010.0
20260506081129 15 140 9.7 9.7 0.00 0.00 0.00 75 1009.9
20260506080627 15 109 8.0 9.7 0.00 0.00 0.00 75 1009.7
20260506080123 15 147 8.0 8.0 0.00 0.00 0.00 74 1009.8
20260506073107 16 148 8.0 14.5 0.00 0.00 0.00 72 1009.9
20260506072603 16 114 6.4 12.9 0.00 0.00 0.00 72 1009.9
20260506072102 16 145 9.7 9.7 0.00 0.00 0.00 72 1009.8
20260506071559 16 145 11.3 16.1 0.00 0.00 0.00 71 1009.5
20260506071056 16 123 4.8 9.7 0.00 0.00 0.00 71 1009.8
20260506070553 16 143 9.7 9.7 0.00 0.00 0.00 71 1009.4
20260506062028 17 147 9.7 14.5 0.00 0.00 0.00 67 1009.4
20260506061523 17 135 6.4 14.5 0.00 0.00 0.00 67 1009.4
20260506061021 17 153 6.4 12.9 0.00 0.00 0.00 67 1009.3
20260506060520 17 126 8.0 9.7 0.00 0.00 0.00 66 1009.5
20260506050948 17 141 4.8 8.0 0.00 0.00 0.00 63 1009.8
20260506050446 17 112 6.4 9.7 0.00 0.00 0.00 63 1009.5
20260506044936 17 126 4.8 9.7 0.00 0.00 0.00 62 1009.8
20260506044435 17 147 9.7 12.9 0.00 0.00 0.00 62 1009.8
20260506043931 17 113 6.4 11.3 0.00 0.00 0.00 62 1010.0
20260506043428 17 94 4.8 8.0 0.00 0.00 0.00 62 1009.9
20260506042926 17 123 6.4 9.7 0.00 0.00 0.00 62 1010.1
20260506042425 17 133 6.4 8.0 0.00 0.00 0.00 62 1009.7
20260506041923 17 117 3.2 9.7 0.00 0.00 0.00 62 1009.9
20260506041420 17 169 0.0 17.7 0.00 0.00 0.00 62 1009.9
20260506040918 17 131 4.8 9.7 0.00 0.00 0.00 62 1010.0
20260506040415 17 115 6.4 9.7 0.00 0.00 0.00 62 1009.9
20260506035911 17 119 6.4 11.3 0.00 0.00 0.00 62 1010.0
20260506035409 17 109 3.2 8.0 0.00 0.00 0.00 62 1010.0
20260506034905 17 121 4.8 9.7 0.00 0.00 0.00 62 1009.8
20260506034402 17 142 11.3 11.3 0.00 0.00 0.00 62 1009.9
20260506033859 17 128 6.4 9.7 0.00 0.00 0.00 62 1010.0
20260506033356 17 132 4.8 8.0 0.00 0.00 0.00 62 1009.9
20260506032853 17 152 9.7 9.7 0.00 0.00 0.00 62 1010.0
20260506032350 17 133 8.0 9.7 0.00 0.00 0.00 61 1009.6
20260506031847 17 114 6.4 14.5 0.00 0.00 0.00 61 1009.6
20260506031344 17 120 4.8 8.0 0.00 0.00 0.00 61 1009.7
20260506030842 17 141 6.4 14.5 0.00 0.00 0.00 61 1009.8
20260506030340 17 133 6.4 14.5 0.00 0.00 0.00 61 1009.7
20260506025836 17 137 6.4 12.9 0.00 0.00 0.00 61 1009.8
20260506025332 17 106 4.8 17.7 0.00 0.00 0.00 60 1010.0
20260506024830 17 129 4.8 12.9 0.00 0.00 0.00 61 1009.8
20260506024326 17 107 4.8 12.9 0.00 0.00 0.00 60 1009.7
20260506023823 17 132 8.0 9.7 0.00 0.00 0.00 60 1010.0
20260506023320 17 154 6.4 14.5 0.00 0.00 0.00 59 1009.8
20260506022816 17 134 8.0 17.7 0.00 0.00 0.00 59 1009.8
20260506022314 17 120 6.4 12.9 0.00 0.00 0.00 59 1009.7
20260506021812 17 133 8.0 16.1 0.00 0.00 0.00 58 1009.8
20260506021309 17 137 14.5 16.1 0.00 0.00 0.00 58 1009.9
20260506020805 17 145 9.7 16.1 0.00 0.00 0.00 58 1009.9
20260506020303 17 104 4.8 11.3 0.00 0.00 0.00 58 1009.9
20260506015801 17 136 9.7 11.3 0.00 0.00 0.00 58 1009.6
20260506015258 17 120 8.0 17.7 0.00 0.00 0.00 57 1009.7
20260506014755 17 142 9.7 9.7 0.00 0.00 0.00 57 1009.7
20260506014251 18 123 6.4 11.3 0.00 0.00 0.00 57 1009.4
20260506013748 18 89 6.4 12.9 0.00 0.00 0.00 56 1009.4
20260506013246 18 65 1.6 12.9 0.00 0.00 0.00 56 1009.3
20260506012742 18 135 9.7 12.9 0.00 0.00 0.00 56 1009.4
20260506012239 18 138 4.8 8.0 0.00 0.00 0.00 56 1009.4
20260506011736 18 107 4.8 9.7 0.00 0.00 0.00 55 1009.4
20260506011232 18 139 6.4 14.5 0.00 0.00 0.00 55 1009.2